DW1520 Weather Reports


time (UTC)temp
F
wind
direction
speed
knots
gust
knots
rain 1hr
in
rain 24hr
in
rain mn
in
humidity
%
barometer
mb
20260504182505 64 272 3.5 7.8 0.00 0.00 0.00 35 996.9
20260504181505 64 216 2.6 8.7 0.00 0.00 0.00 32 996.8
20260504181005 65 213 4.3 10.4 0.00 0.00 0.00 30 996.7
20260504180505 66 222 4.3 10.4 0.00 0.00 0.00 32 996.6
20260504180006 66 219 2.6 10.4 0.00 0.00 0.00 36 996.5
20260504175505 66 235 3.5 6.1 0.00 0.00 0.00 34 996.4
20260504175005 66 230 3.5 7.0 0.00 0.00 0.00 35 996.3
20260504174505 66 284 5.2 11.3 0.00 0.00 0.00 38 996.3
20260504174006 66 274 3.5 8.7 0.00 0.00 0.00 37 996.4
20260504173505 66 225 2.6 4.3 0.00 0.00 0.00 37 996.4
20260504173005 66 217 2.6 10.4 0.00 0.00 0.00 38 996.4
20260504172505 66 286 3.5 10.4 0.00 0.00 0.00 39 996.3
20260504172005 65 282 4.3 11.3 0.00 0.00 0.00 38 996.4
20260504171505 65 292 4.3 10.4 0.00 0.00 0.00 39 996.5
20260504171005 64 295 0.9 2.6 0.00 0.00 0.00 37 996.4
20260504170505 65 264 4.3 10.4 0.00 0.00 0.00 36 996.4
20260504151006 64 216 2.6 7.0 0.00 0.00 0.00 49 995.8
20260504150505 64 284 1.7 5.2 0.00 0.00 0.00 48 995.9
20260504141006 63 225 2.6 11.3 0.00 0.00 0.00 48 995.8
20260504140505 63 226 4.3 8.7 0.00 0.00 0.00 47 995.8
20260504130505 59 176 4.3 10.4 0.00 0.00 0.00 51 995.1
20260504110505 54 189 5.2 10.4 0.00 0.00 0.00 54 995.8
20260504100505 52 169 4.3 8.7 0.00 0.00 0.00 58 996.5
20260504082006 50 161 1.7 5.2 0.00 0.00 0.00 60 997.7
20260504081006 50 174 1.7 2.6 0.00 0.00 0.00 61 998.0
20260504045506 52 314 0.0 0.0 0.00 0.00 0.00 55 1001.1
20260504045007 52 314 0.0 0.0 0.00 0.00 0.00 55 1001.1
20260504044506 52 314 0.0 0.0 0.00 0.00 0.00 56 1001.1
20260504044006 52 314 0.0 0.0 0.00 0.00 0.00 55 1001.2
20260504043506 52 314 0.0 0.0 0.00 0.00 0.00 54 1001.3
20260504043006 52 314 0.0 0.0 0.00 0.00 0.00 54 1001.3
20260504042506 52 314 0.0 0.0 0.00 0.00 0.00 53 1001.4
20260504042006 52 314 0.0 0.0 0.00 0.00 0.00 52 1001.4
20260504041506 53 314 0.0 0.0 0.00 0.00 0.00 52 1001.6
20260504041007 53 314 0.0 0.0 0.00 0.00 0.00 51 1001.6
20260504040506 53 314 0.0 0.0 0.00 0.00 0.00 51 1001.7
20260504035506 54 314 0.0 0.0 0.00 0.00 0.00 50 1001.8
20260504034507 55 314 0.0 0.0 0.00 0.00 0.00 48 1002.0
20260504034007 55 314 0.0 0.0 0.00 0.00 0.00 47 1002.0
20260504033506 55 314 0.0 0.0 0.00 0.00 0.00 46 1002.0
20260504033006 55 314 0.0 0.0 0.00 0.00 0.00 46 1002.0
20260504032506 55 314 0.0 0.0 0.00 0.00 0.00 45 1002.0
20260504032006 55 314 0.0 0.0 0.00 0.00 0.00 45 1002.1
20260504031507 56 314 0.0 0.0 0.00 0.00 0.00 44 1002.2
20260504030507 56 314 0.0 0.0 0.00 0.00 0.00 44 1002.4
20260504030006 56 314 0.0 0.0 0.00 0.00 0.00 44 1002.5
20260504025506 56 314 0.0 0.0 0.00 0.00 0.00 44 1002.6
20260504025006 56 314 0.0 0.0 0.00 0.00 0.00 44 1002.6
20260504024506 57 314 0.0 0.0 0.00 0.00 0.00 44 1002.6
20260504024006 57 314 0.0 0.0 0.00 0.00 0.00 43 1002.6
20260504023506 58 314 0.0 0.0 0.00 0.00 0.00 42 1002.5
20260504023006 58 314 0.0 0.0 0.00 0.00 0.00 41 1002.5
20260504021507 59 314 0.0 0.0 0.00 0.00 0.00 40 1002.5
20260504021006 59 314 0.0 0.0 0.00 0.00 0.00 39 1002.4
20260504020506 60 314 0.0 0.0 0.00 0.00 0.00 38 1002.4
20260504020006 60 314 0.0 0.0 0.00 0.00 0.00 38 1002.4
20260504015505 60 314 0.0 0.0 0.00 0.00 0.00 38 1002.4
20260504015006 61 314 0.0 0.0 0.00 0.00 0.00 37 1002.4
20260504014506 61 314 0.0 0.0 0.00 0.00 0.00 37 1002.3
20260504014006 62 314 0.0 0.0 0.00 0.00 0.00 37 1002.3
20260504013506 62 314 0.0 0.0 0.00 0.00 0.00 36 1002.2
20260504013007 63 314 0.0 0.0 0.00 0.00 0.00 36 1002.3
20260504012006 63 314 0.0 0.0 0.00 0.00 0.00 34 1002.2
20260504011506 64 314 0.0 0.9 0.00 0.00 0.00 34 1002.3
20260504011006 64 314 0.0 0.0 0.00 0.00 0.00 34 1002.3
20260504010506 64 314 0.0 0.9 0.00 0.00 0.00 33 1002.2
20260504005506 65 314 0.9 2.6 0.00 0.00 0.00 33 1002.3
20260504005007 66 314 0.0 0.9 0.00 0.00 0.00 34 1002.2
20260504003506 66 314 0.9 2.6 0.00 0.00 0.00 31 1002.3
20260504003008 67 314 0.9 2.6 0.00 0.00 0.00 31 1002.3
20260504002506 67 314 0.9 2.6 0.00 0.00 0.00 30 1002.4
20260504001506 67 290 0.9 2.6 0.00 0.00 0.00 30 1002.5
20260504001006 67 296 1.7 5.2 0.00 0.00 0.00 31 1002.4
20260504000506 68 253 0.9 2.6 0.00 0.00 0.00 29 1002.4
20260504000006 68 311 1.7 4.3 0.00 0.00 0.00 30 1002.4
20260503235506 68 292 2.6 7.8 0.00 0.00 0.00 30 1002.4
20260503234506 68 284 1.7 7.0 0.00 0.00 0.00 30 1002.4
20260503233506 69 307 1.7 5.2 0.00 0.00 0.00 31 1002.5
20260503233006 69 312 2.6 7.0 0.00 0.00 0.00 32 1002.6
20260503232506 69 292 2.6 6.1 0.00 0.00 0.00 30 1002.5
20260503232006 69 295 2.6 6.1 0.00 0.00 0.00 29 1002.5
20260503231506 69 201 2.6 7.0 0.00 0.00 0.00 29 1002.6
20260503231006 69 299 1.7 6.1 0.00 0.00 0.00 29 1002.6
20260503230006 69 306 1.7 7.0 0.00 0.00 0.00 28 1002.6
20260503225506 69 291 2.6 8.7 0.00 0.00 0.00 28 1002.6
20260503225006 69 305 2.6 7.8 0.00 0.00 0.00 27 1002.6
20260503224506 69 279 2.6 7.8 0.00 0.00 0.00 27 1002.5
20260503224006 69 288 2.6 7.8 0.00 0.00 0.00 29 1002.5
20260503223506 70 254 1.7 8.7 0.00 0.00 0.00 30 1002.5
20260503223006 70 311 2.6 7.8 0.00 0.00 0.00 30 1002.5
20260503222506 70 302 1.7 7.8 0.00 0.00 0.00 32 1002.5
20260503222006 70 300 2.6 7.0 0.00 0.00 0.00 30 1002.5
20260503221506 70 295 1.7 7.8 0.00 0.00 0.00 33 1002.4
20260503221006 70 287 1.7 7.0 0.00 0.00 0.00 33 1002.4
20260503220506 70 229 2.6 7.8 0.00 0.00 0.00 31 1002.4
20260503220006 70 293 1.7 6.1 0.00 0.00 0.00 32 1002.4
20260503214506 70 307 3.5 8.7 0.00 0.00 0.00 30 1002.5
20260503214006 70 323 2.6 7.0 0.00 0.00 0.00 31 1002.5
20260503213506 70 299 4.3 8.7 0.00 0.00 0.00 31 1002.5
20260503213006 70 244 1.7 7.0 0.00 0.00 0.00 34 1002.5
20260503212506 70 243 2.6 6.1 0.00 0.00 0.00 31 1002.5
20260503212006 70 285 2.6 7.0 0.00 0.00 0.00 33 1002.6
20260503211506 70 253 2.6 7.0 0.00 0.00 0.00 32 1002.6
20260503211006 70 295 1.7 7.8 0.00 0.00 0.00 32 1002.6
20260503210506 70 297 2.6 7.8 0.00 0.00 0.00 33 1002.7
20260503210006 70 309 2.6 7.0 0.00 0.00 0.00 32 1002.7
20260503205506 70 296 4.3 8.7 0.00 0.00 0.00 35 1002.8
20260503205006 70 307 5.2 10.4 0.00 0.00 0.00 33 1002.9
20260503204506 70 232 2.6 7.0 0.00 0.00 0.00 33 1002.9
20260503204006 70 277 3.5 7.8 0.00 0.00 0.00 35 1003.0
20260503203006 70 291 1.7 7.0 0.00 0.00 0.00 37 1003.0
20260503202506 70 301 2.6 10.4 0.00 0.00 0.00 37 1003.1
20260503202006 70 238 1.7 7.0 0.00 0.00 0.00 38 1003.0
20260503201506 70 295 4.3 10.4 0.00 0.00 0.00 36 1003.0
20260503201006 70 299 2.6 7.0 0.00 0.00 0.00 36 1003.0
20260503200506 70 291 1.7 7.0 0.00 0.00 0.00 36 1003.0
20260503200006 70 304 0.9 7.0 0.00 0.00 0.00 37 1003.0
20260503195506 70 266 1.7 7.0 0.00 0.00 0.00 34 1003.1
20260503195006 70 295 4.3 8.7 0.00 0.00 0.00 33 1003.2
20260503194506 70 290 3.5 7.8 0.00 0.00 0.00 35 1003.1
20260503194006 70 307 3.5 7.8 0.00 0.00 0.00 34 1003.2
20260503193506 70 292 2.6 7.0 0.00 0.00 0.00 34 1003.3
20260503193006 70 307 1.7 5.2 0.00 0.00 0.00 33 1003.3
20260503191505 70 212 2.6 6.1 0.00 0.00 0.00 35 1003.3
20260503191006 70 293 3.5 7.8 0.00 0.00 0.00 35 1003.3
20260503190506 70 296 2.6 6.1 0.00 0.00 0.00 37 1003.3
20260503190006 70 266 2.6 7.8 0.00 0.00 0.00 36 1003.4
20260503185506 69 250 1.7 7.0 0.00 0.00 0.00 39 1003.3
20260503185006 69 256 2.6 7.8 0.00 0.00 0.00 39 1003.4
20260503184506 69 309 2.6 8.7 0.00 0.00 0.00 37 1003.4
20260503184006 69 306 1.7 6.1 0.00 0.00 0.00 38 1003.5
20260503183506 69 313 1.7 7.8 0.00 0.00 0.00 37 1003.5
20260503183006 69 300 4.3 10.4 0.00 0.00 0.00 38 1003.6